Tracking 26240 objects as of 6-Oct-2022
HD Live streaming from Space Station
objects crossing your sky now

STARLINK-3203

Track STARLINK-3203 now!
10-day predictions
STARLINK-3203 is classified as:


NORAD ID: 49761
Int'l Code: 2021-115AP
Perigee: 545.6 km
Apogee: 548.2 km
Inclination: 53.2 °
Period: 95.4 minutes
Semi major axis: 6917 km
RCS: Unknown
Launch date: December 2, 2021
Source: United States (US)
Launch site: AIR FORCE EASTERN TEST RANGE (AFETR)
aabbcc
Your satellite tracking list
Your tracking list is empty




NASA's NSSDC Master Catalog

Two Line Element Set (TLE):
1 49761U 21115AP  22278.48202877 -.00000183  00000-0  65905-5 0  9999
2 49761  53.2165 356.0188 0001855  46.5730 313.5416 15.08841174 46783
Source of the keplerian elements: AFSPC